{"data":{"norad_id":63291,"intl_designator":"2025-055A","name":"2025-055A","alt_names":[],"object_type":"PAYLOAD","status":"ACTIVE","operator":null,"country":"PRC","launch_date":"2025-03-17","launch_site_code":"JSC","launch_vehicle":null,"mission":null,"orbit_class":"UNKNOWN","rcs_meters":null,"size_class":null,"mass_kg":null,"dimensions":null,"purposes":[],"wikipedia_slug":null,"has_3d_model":false,"image_url":null,"decayed_at":null,"tle_current":{"epoch":"2026-09-22T21:47:58.651008Z","epoch_age_seconds":100574,"freshness":"FRESH","line1":"1 63291U 25055A   26265.90831772  .00005420  00000+0  30156-3 0  9994","line2":"2 63291  97.6653  46.3262 0024696 123.4027 236.9571 15.13826931 83832","mean_motion":15.13826931,"eccentricity":0.0024696,"inclination_deg":97.6653,"raan_deg":46.3262,"arg_perigee_deg":123.4027,"mean_anomaly_deg":236.9571,"bstar":0.00030156,"rev_number":8383,"period_min":95.123159095126,"perigee_km":507.49534015053,"apogee_km":541.58905323884,"semimajor_km":6902.6791966947,"source":"CELESTRAK","updated_at":"2026-09-23T09:00:21.955424Z"}}}